Regional Weather Roundup
Issued by NWS

Home | Current Version | Previous Version | Graphics & Text | Print | Product List | Glossary On
Versions: 1 2 3 4 5 6 7 8 9 10 11 12 13 14 15 16 17 18 19 20 21 22 23 24 25 26 27
000
ASUS45 KCYS 230010
RWRWY

WYOMING REGIONAL WEATHER ROUNDUP
NATIONAL WEATHER SERVICE CHEYENNE WY
600 PM MDT TUE APR 22 2014

NOTE:  "FAIR" INDICATES FEW OR NO CLOUDS BELOW 12,000 FEET
WITH NO SIGNIFICANT WEATHER AND/OR OBSTRUCTIONS TO VISIBILITY.

WYZ001-230100-
YELLOWSTONE NATIONAL PARK

CITY           SKY/WX    TMP DP  RH WIND       PRES   REMARKS
LK YELLOWSTONE   N/A     49  28  44 VRB3      29.63F
6HR MIN TEMP:  45; 6HR MAX TEMP:  53;

W YELLOWSTONE  NOT AVBL

$$
WYZ002>013-054>058-071-098>099-230100-
NORTHERN WYOMING

CITY           SKY/WX    TMP DP  RH WIND       PRES   REMARKS
JACKSON        MOSUNNY   61  27  27 SE22G28   29.53F
CODY           CLOUDY    66  36  32 SE18      29.48F
GREYBULL       CLOUDY    72  37  28 E6        29.48F
6HR MIN TEMP:  65; 6HR MAX TEMP:  77;

WORLAND        CLOUDY    70  40  33 SE15      29.49F
6HR MIN TEMP:  63; 6HR MAX TEMP:  75;

SHERIDAN         N/A     57  36  44 SE10        N/A
6HR MIN TEMP:  63; 6HR MAX TEMP:  73;

BUFFALO        CLOUDY    62  37  39 SW23G30   29.60F
6HR MIN TEMP:  61; 6HR MAX TEMP:  71; 6HR PCP: TRACE;

GILLETTE       HVY RAIN  59  46  62 S21G47    29.63R
6HR MIN TEMP:  59; 6HR MAX TEMP:  74; 6HR PCP:  0.03;

HULETT         FAIR      72  37  28 S15       29.62
NEWCASTLE      FAIR      64  37  36 MISG      29.66

$$
WYZ014>020-022>026-101>103-230100-
CENTRAL WYOMING

CITY           SKY/WX    TMP DP  RH WIND       PRES   REMARKS
BIG PINEY      CLOUDY    64  17  16 SW21      29.62F
6HR MIN TEMP:  51; 6HR MAX TEMP:  64; 6HR PCP: TRACE;

PINEDALE       CLOUDY    59  25  27 S14G22    29.63F
DUBOIS         FAIR      57  23  26 SW18G30   29.60F
LANDER         CLOUDY    65  32  29 SW25G44   29.57F
6HR MIN TEMP:  56; 6HR MAX TEMP:  70; 6HR PCP: TRACE;

RIVERTON       CLOUDY    66  32  28 SW16      29.57F
6HR MIN TEMP:  58; 6HR MAX TEMP:  70; 6HR PCP: TRACE;

CASPER         CLOUDY    65  36  34 S16       29.63F
6HR MIN TEMP:  64; 6HR MAX TEMP:  72;

DOUGLAS        CLOUDY    62  40  44 S8        29.67F
6HR MIN TEMP:  57; 6HR MAX TEMP:  64; 6HR PCP:  0.01;


$$
WYZ021-027>030-104>119-230100-
SOUTHERN WYOMING

CITY           SKY/WX    TMP DP  RH WIND       PRES   REMARKS
EVANSTON       LGT RAIN  56  30  37 S25G41    29.65S
6HR MIN TEMP:  55; 6HR MAX TEMP:  65; 6HR PCP: TRACE;

KEMMERER       CLOUDY    63  23  22 S26G36    29.64F
FORT BRIDGER   FAIR      62  29  28 S31G41    29.68F
ROCK SPRINGS   CLOUDY    66  23  19 S24G32    29.66F
6HR MIN TEMP:  63; 6HR MAX TEMP:  67;

DIXON          FAIR      65  25  22 SW15G26   29.78F
RAWLINS        CLOUDY    64  19  17 SW26G44   29.74F
6HR MIN TEMP:  59; 6HR MAX TEMP:  69; 6HR PCP: TRACE;

SARATOGA       FAIR      64  23  20 S20G38    29.77F
LARAMIE        CLOUDY    61  30  31 S22G32    29.81F
6HR MIN TEMP:  59; 6HR MAX TEMP:  65;

CHEYENNE       CLOUDY    64  35  34 SE14      29.78F
6HR MIN TEMP:  63; 6HR MAX TEMP:  73;

TORRINGTON     CLOUDY    71  40  32 N7        29.66F
6HR MIN TEMP:  71; 6HR MAX TEMP:  79;

PINE BLUFFS    FAIR      72  32  23 SE9       29.72F

$$



USA.gov is the U.S. government's official web portal to all federal, state and local government web resources and services.